          21 14  13 22.20  +69 56.1   2.751  2.861    31.9 / 204  16.8  105  .98

          22 14  13 19.76  +69 26.8   2.756  2.864    31.9 / 203  16.8  109  .94

          23 14  13 17.48  +68 57.3   2.761  2.866    32.0 / 202  16.8  112  .89

          24 14  13 15.34  +68 27.5   2.766  2.868    32.0 / 201  16.8  114  .83

          25 14  13 13.34  +67 57.4   2.771  2.871    32.1 / 200  16.8  116  .75

          26 14  13 11.47  +67 27.2   2.777  2.873    32.1 / 199  16.8  117  .66

          27 14  13 09.73  +66 56.7   2.782  2.876    32.2 / 198  16.8  116  .56

          28 14  13 08.10  +66 26.0   2.788  2.878    32.2 / 197  16.8  114  .45

          29 14  13 06.58  +65 55.2   2.794  2.881    32.2 / 196  16.8  111  .35

          30 14  13 05.17  +65 24.2   2.800  2.884    32.2 / 195  16.8  107  .24

          31 14  13 03.86  +64 53.0   2.807  2.886    32.2 / 194  16.8  101  .15

     June  1 14  13 02.64  +64 21.8   2.813  2.889    32.2 / 193  16.9   95  .08

NAKANO

         **** Don't distribute anyone except personal use only ****

                (C) Copyright 2008 OAA/ComputingSection

write mail from CFAD0::NAKANO on 2008-04-26 06:22:10(JST).

 



◎2008 H1の軌道と予報位置です



 守山の井狩康一氏から4月21日の観測が報告されました.彗星は,17等級

で観測されています.



    C/2008 H1 (LINEAR)

T 2008 Mar. 30.86372 TT                                 Nakano

q   2.7809612            (2000.0)            P               Q

                   Peri.  100.32373     -0.28641620     -0.78660458

                   Node    34.39136     -0.28616769     -0.47463275

e   1.0            Incl.   75.56422     +0.91437072     -0.39493921

From 24 observations 2008 Apr. 18-21.

 

Date/        TT  R.A.(2000) Decl.     Delta   r     Daily motion  Mag.  Moon Age

              h    h  m       。  ,                      ,  / PA 。  m1      。

2008 Apr. 20 14  16 40.64  +79 18.5   2.667  2.789    27.1 / 269  17.6   99 1.00

          21 14  16 30.92  +79 17.5   2.666  2.790    27.3 / 266  17.6  101  .99

          22 14  16 21.17  +79 15.0   2.666  2.791    27.6 / 263  17.6  104  .96

          23 14  16 11.45  +79 11.1   2.666  2.792    27.8 / 260  17.6  106  .91

          24 14  16 01.79  +79 05.8   2.666  2.793    28.0 / 257  17.6  107  .85

          25 14  15 52.25  +78 59.0   2.666  2.794    28.3 / 254  17.6  108  .78

          26 14  15 42.88  +78 50.8   2.666  2.795    28.5 / 251  17.6  109  .69

          27 14  15 33.70  +78 41.2   2.666  2.796    28.7 / 249  17.6  108  .60

          28 14  15 24.76  +78 30.2   2.666  2.797    28.9 / 246  17.6  107  .50

          29 14  15 16.08  +78 17.9   2.667  2.798    29.1 / 243  17.6  105  .40

          30 14  15 07.70  +78 04.3   2.668  2.799    29.3 / 241  17.6  103  .30

     May   1 14  14 59.62  +77 49.5   2.668  2.800    29.5 / 238  17.6  100  .20

           2 14  14 51.86  +77 33.4   2.669  2.801    29.7 / 236  17.6   96  .12

           3 14  14 44.44  +77 16.3   2.671  2.803    29.9 / 233  17.6   91  .06

           4 14  14 37.36  +76 58.0   2.672  2.804    30.1 / 231  17.6   87  .01

           5 14  14 30.61  +76 38.7   2.673  2.805    30.3 / 229  17.6   82  .00

           6 14  14 24.20  +76 18.5   2.675  2.807    30.4 / 227  17.6   77  .02

           7 14  14 18.11  +75 57.3   2.676  2.808    30.6 / 225  17.6   74  .07

           8 14  14 12.35  +75 35.3   2.678  2.809    30.8 / 223  17.6   71  .14

           9 14  14 06.90  +75 12.4   2.680  2.811    30.9 / 221  17.6   69  .23

          10 14  14 01.76  +74 48.8   2.683  2.812    31.1 / 219  17.6   68  .33

          11 14  13 56.91  +74 24.5   2.685  2.814    31.2 / 217  17.6   69  .44

          12 14  13 52.33  +73 59.5   2.688  2.816    31.3 / 216  17.6   70  .54

          13 14  13 48.03  +73 33.9   2.690  2.817    31.5 / 214  17.6   72  .65

          14 14  13 43.97  +73 07.7   2.693  2.819    31.6 / 213  17.7   75  .74

          15 14  13 40.16  +72 41.0   2.696  2.821    31.7 / 211  17.7   79  .82

          16 14  13 36.58  +72 13.7   2.699  2.822    31.8 / 210  17.7   83  .89

          17 14  13 33.21  +71 46.0   2.703  2.824    31.9 / 208  17.7   87  .94

          18 14  13 30.05  +71 17.9   2.706  2.826    32.0 / 207  17.7   92  .98

          19 14  13 27.09  +70 49.3   2.710  2.828    32.1 / 206  17.7   96 1.00

          20 14  13 24.31  +70 20.4   2.714  2.830    32.2 / 205  17.7  101 1.00

          21 14  13 21.71  +69 51.1   2.718  2.831    32.2 / 204  17.7  105  .98

          22 14  13 19.26  +69 21.5   2.723  2.833    32.3 / 203  17.7  109  .94

          23 14  13 16.98  +68 51.6   2.727  2.835    32.4 / 201  17.7  112  .89

          24 14  13 14.84  +68 21.4   2.732  2.837    32.4 / 200  17.7  114  .83

          25 14  13 12.84  +67 51.0   2.737  2.839    32.5 / 199  17.7  116  .75

          26 14  13 10.97  +67 20.3   2.742  2.842    32.5 / 198  17.7  117  .66

          27 14  13 09.22  +66 49.4   2.747  2.844    32.6 / 198  17.7  116  .56

          28 14  13 07.60  +66 18.3   2.752  2.846    32.6 / 197  17.7  114  .45

          29 14  13 06.08  +65 47.1   2.758  2.848    32.6 / 196  17.7  111  .35

          30 14  13 04.67  +65 15.6   2.764  2.850    32.7 / 195  17.8  107  .24

          31 14  13 03.36  +64 44.0   2.770  2.853    32.7 / 194  17.8  101  .15

     June  1 14  13 02.14  +64 12.3   2.776  2.855    32.7 / 193  17.8   95  .08

NAKANO

         **** Don't distribute anyone except personal use only ****

                (C) Copyright 2008 OAA/ComputingSection

write mail from CFAD0::NAKANO on 2008-04-22 06:18:22(JST).

 



戻ります。